Location: Clifton Park
(41.4873°N, 81.8024°W)
Time: 17:35:41
(UTC+00:00)

DELTA 2 R/B (1) - Pass Details

Date: 21 January 2020
Orbit: 791 x 802 km, 39.6° (Epoch: 19 February)

Event Time Altitude Azimuth Distance (km) Brightness Sun altitude
Rises 01:11:08 0° 268° (W) 3,294 8.0 -30.3°
Reaches altitude 10° 01:13:37 10° 267° (W) 2,366 6.9 -30.8°
Enters shadow 01:17:56 53° 249° (WSW) 972 4.2 -31.6°
